www.pogodaiklimat.ru

Погода и климат >> Архив погоды >> Армения >> Капан


ПОГОДА в Капане

  • Прогноз погоды в Капане
  • Монитор погоды в Капане

АРХИВ ПОГОДЫ в Капане

Время (UTC), дата Ветер
(напр.,м/с)
 
Видим.   Явления Облачность Т
(С)
Тd
(С)
f
(%)
Тe
(С)
Тes
(С)
Комфортность P
(гПа)
Po
(гПа)
Тmin
(С)
Tmax
(С)
R
(мм)
R24
(мм)
S
(см)
12 10.08 ЮВ 2 10 км ясно +30.5 +16.3 42 +34 +44 очень
душно
1004.6 929.1
18 10.08 СЗ 1 н/о ясно +22.3 +15.1 64 +26 +26 жарко 1008.5 930.5 +31.0
00 11.08 штиль 0 н/о ясно +17.3 +13.6 79 +17 +17 1010.7 931.4
03 11.08 СЗ 1 10 км ясно +16.2 +12.9 81 +17 +18 1012.2 932.4
06 11.08 штиль 0 10 км 4/0
[Ci fib]
+27.9 +17.7 54 +32 +46 душно 1009.5 933.0 +16.2
12 11.08 В 3 10 км 10/0
[Ac und]
+29.4 +17.0 47 +33 +36 душно 1010.0 933.7
18 11.08 штиль 0 н/о 10/0
[Ac und]
+23.6 +15.5 60 +27 +27 жарко 1014.5 936.5 +30.5
00 12.08 В 1 н/о 10/0
[Ac und]
+21.2 +17.8 81 +25 +25 комфорт 1015.8 937.1
03 12.08 штиль 0 10 км 10/0
[Ac und]
+19.8 +15.9 78 +22 +22 комфорт 1016.8 937.6
06 12.08 В 2 10 км 4/0
[Ci fib]
+26.7 +13.1 43 +28 +38 жарко 1015.0 937.6 +19.8
12 12.08 Ю 5 10 км 5/0
[Ac und]
+29.1 +14.2 40 +31 +34 жарко 1012.6 936.0
18 12.08 штиль 0 н/о ясно +21.5 +14.5 64 +24 +24 комфорт 1017.0 938.2 +29.8
00 13.08 С 1 н/о ясно +15.8 +12.7 82 +16 +16 1019.2 938.7
03 13.08 штиль 0 10 км 10/0
[As op]
+16.4 +13.3 82 +16 +16 1019.4 939.0
06 13.08 штиль 0 10 км 9/0
[Ac und Ci sp]
+23.3 +15.5 62 +28 +36 душно 1017.2 938.8 +15.6
12 13.08 ЮВ 2 10 км 5/3 2000 м
[Cu hum Ac und]
+29.1 +14.7 41 +31 +37 жарко 1013.1 936.5
18 13.08 СЗ 2 н/о 4/0
[Ac und]
+20.3 +14.1 68 +23 +23 комфорт 1016.6 937.5 +30.0
00 14.08 штиль 0 н/о 8/0
[Ac und]
+19.1 +15.6 80 +20 +20 1018.2 938.7
03 14.08 СЗ 1 10 км 3/0
[Ac und]
+16.0 +13.9 87 +17 +17 1019.3 938.9
06 14.08 В 2 10 км ясно +24.9 +16.1 58 +28 +39 жарко 1016.0 938.3
12 14.08 В 3 10 км ясно +30.7 +13.5 35 +32 +40 жарко 1013.2 937.0
18 14.08 штиль 0 н/о ясно +23.8 +16.9 65 +27 +27 жарко 1014.8 936.9 +30.7
00 15.08 В 1 н/о ясно +17.7 +14.4 81 +19 +19 1016.9 937.1
03 15.08 штиль 0 10 км ясно +16.3 +14.4 89 +16 +17 1017.0 936.8
06 15.08 ЮВ 2 10 км ясно +25.5 +15.9 55 +29 +39 душно 1013.4 936.0 +16.3
12 15.08 ЮВ 4 10 км 4/0
[Cs]
+31.5 +18.2 45 +36 +42 очень
душно
1009.1 933.5
18 15.08 С 2 н/о ясно +23.3 +18.7 75 +29 +29 душно 1012.7 934.8 +32.2
00 16.08 С 1 н/о ясно +18.8 +17.4 92 +21 +21 комфорт 1014.3 935.1
03 16.08 штиль 0 4000 м 10/3 1500 м
[Cu Sc Ac As]
+20.3 +18.1 87 +23 +24 комфорт 1013.6 934.9
06 16.08 ЮВ 2 4000 м 9/3 1500 м
[Cu Sc As trans]
+24.3 +18.8 71 +29 +33 душно 1012.2 934.6 +18.6
12 16.08 ЮВ 2 10 км 3/0
[Ac und]
+32.1 +19.7 48 +38 +46 очень
душно
1005.4 930.3
18 16.08 СЗ 1 н/о ясно +24.3 +19.0 72 +29 +29 душно 1008.0 930.8 +32.5
00 17.08 штиль 0 н/о ясно +19.1 +16.6 85 +21 +21 комфорт 1010.3 931.5
03 17.08 СЗ 1 4000 м 10/10 1000 м
[Sc]
+19.3 +17.2 88 +22 +22 комфорт 1010.6 931.8
06 17.08 ЮЗ 1 4000 м 10/10 1000 м
[Sc]
+22.3 +18.4 79 +28 +28 душно 1009.7 931.8 +19.0

 

Местоположение метеостанции Капан (Армения): широта 39.20 долгота 46.43 высота над уровнем моря 706 м.

В архиве по умолчанию представлена погода в Капане за последнюю неделю. Архивные данные за месяц целиком и за предыдущие месяцы, начиная с января 2011 года, Вы можете получить, выбрав интересующий диапазон дат из раскрывающегося списка и нажав кнопку "Ввод!".


*Определитесь, кто Вы:
робот инопланетянин человек

Внимание! Время в таблицах - всемирное. Для получения местного времени необходимо прибавить поправку, которая равна 4 ч.

Смотрите также архив погоды в соседних городах и на ближайших метеорологических станциях:

Погода в Сисиане (Армения) (51 км)
Погода в Нахичивани (Азербайджан) (87 км)
Погода в Ахаре (Иран) (102 км)
Погода в Тебризе (Иран) (125 км)
Погода в Беылагане (Азербайджан) (130 км)
Погода в Парсабаде (Иран) (137 км)
Погода в Барде (Азербайджан) (143 км)
Погода в Хое (Иран) (146 км)
Погода в Гадабухте (Азербайджан) (161 км)
Погода в Гяндже (Азербайджан) (169 км)

Пояснения к столбцам:

Ветер - указаны скорость ветра в м/с - средняя за 10 мин, порывы в срок и между сроками (в фигурных скобках) и направление, откуда дует ветер: С - северный, СВ - северо-восточный, В - восточный, ЮВ - юго-восточный, Ю - южный, ЮЗ - юго-западный, З - западный, СЗ - северо-западный.
Видимость - горизонтальная дальность видимости в метрах или километрах. При видимости от 1 до 10 км при отсутствии осадков обычно наблюдается дымка, при ухудшении видимости до 1 км и менее - туман. В сухую погоду видимость может ухудшаться дымом, пылью или мглою.
Явления - указаны атмосферные явления, наблюдавшиеся в срок или в последний час перед сроком; фигурными скобками обозначены явления, наблюдавшиеся между сроками (за 1-3 часа до срока); квадратными скобками обозначены град или гололедные отложения с указанием их диаметра в мм.
Облачность - указаны через наклонную черту общая и нижняя облачность в баллах и высота нижней границы облаков в метрах; квадратными скобками обозначены формы облаков: Ci - перистые, Cs - перисто-слоистые, Cc - перисто-кучевые, Ac - высококучевые, As - высокослоистые, Sc - слоисто-кучевые, Ns - слоисто-дождевые, Cu - кучевые, Cb - кучево-дождевые. Подробнее классификацию облаков см. в Атласе облаков (PDF).
T - Температура воздуха - температура, измеренная на высоте 2 м над землей.
Td - Температура точки росы - температура, при понижении до которой содержащийся в воздухе водяной пар достигнет насыщения.
f - Относительная влажность воздуха - влажноcть воздуха, измеренная на высоте 2 м над землей.
Te - Эффективная температура - температура, которую ощущает одетый по сезону человек в тени. Характеристика душности погоды. При расчете учитывается влияние влажности воздуха и скорости ветра на теплоощущения человека.
Tes - Эффективная температура на солнце - температура, которую ощущает человек, с поправкой на солнечный нагрев. Характеристика знойности погоды. Зависит от высоты солнца над горизонтом, облачности и скорости ветра. Ночью, в пасмурную погоду, а также при ветре 12 м/с и более поправка равна нулю.
P - Атмосферное давление - приведенное к уровню моря атмосферное давление.
Po - Атмосферное давление - измеренное на уровне метеостанции атмосферное давление.
Tmin - Минимальная температура - минимум температуры воздуха на высоте 2 м над землей.
Tmax - Максимальная температура - максимум температуры воздуха на высоте 2 м над землей.
R - Количество осадков - Количество выпавших осадков за период времени, мм. При наведении курсора мыши на число - период времени, за который выпало указанное количество осадков.
R24 - Количество осадков - Количество выпавших осадков за 24 часа, мм.
S - Снежный покров - Высота снежного покрова, см. При наведении курсора мыши на число - состояние снежного покрова и степень покрытия местности в баллах.